{"data":{"norad_id":59136,"intl_designator":"2024-043AQ","name":"VSP RF C1","alt_names":[],"object_type":"PAYLOAD","status":"ACTIVE","operator":null,"country":"BEL","launch_date":"2024-03-04","launch_site_code":"AFWTR","launch_vehicle":null,"mission":null,"orbit_class":"UNKNOWN","rcs_meters":null,"size_class":null,"mass_kg":null,"dimensions":null,"purposes":[],"wikipedia_slug":null,"has_3d_model":false,"image_url":null,"decayed_at":null,"tle_current":{"epoch":"2026-09-22T22:02:47.032224Z","epoch_age_seconds":48822,"freshness":"FRESH","line1":"1 59136U 24043AQ  26265.91859991  .00002972  00000+0  11253-3 0  9993","line2":"2 59136  97.5747  45.4181 0001266 105.8856 254.2523 15.27742056142016","mean_motion":15.27742056,"eccentricity":0.0001266,"inclination_deg":97.5747,"raan_deg":45.4181,"arg_perigee_deg":105.8856,"mean_anomaly_deg":254.2523,"bstar":0.00011253,"rev_number":14201,"period_min":94.2567493213,"perigee_km":481.69532023941,"apogee_km":483.43244970348,"semimajor_km":6860.7008849714,"source":"CELESTRAK","updated_at":"2026-09-23T09:00:19.182272Z"}}}